Location: Kalberh�ni
(46.4610°N, 7.2453°E)
Time: 21:12:37
(UTC+00:00)

USA 229 - Pass Details

Date: 28 October 2021
Orbit: 946 x 1266 km, 63.4° (Epoch: 25 November)

Event Time Altitude Azimuth Distance (km) Brightness Sun altitude
Rises 19:59:28 0° 275° (W) 3,719 7.4 -37.5°
Reaches altitude 10° 20:02:36 10° 290° (WNW) 2,816 6.6 -38.0°
Maximum altitude 20:07:49 24° 342° (NNW) 2,073 5.5 -38.8°
Enters shadow 20:09:12 22° 359° (N) 2,158 5.4 -39.1°
